Regional Weather Roundup
Issued by NWS Albany, NY

Home | Current Version | Previous Version | Text Only | Print | Product List | Glossary On
Versions: 1 2 3 4 5 6 7 8 9 10 11 12 13 14 15 16 17 18 19 20 21 22 23 24 25 26 27 28 29 30 31 32 33 34 35 36 37 38 39 40 41 42 43 44 45 46 47 48 49 50
000
ASUS41 KALY 251910
RWRALY

NEW YORK STATE HOURLY WEATHER ROUNDUP
NATIONAL WEATHER SERVICE ALBANY NY
300 PM EDT SAT APR 25 2015

NOTE: "FAIR" INDICATES FEW OR NO CLOUDS BELOW 12,000 FEET WITH NO
SIGNIFICANT WEATHER AND/OR NO OBSTRUCTIONS TO VISIBILITY.

NYZ032-033-038>043-046>054-057>066-NYZ062>081-252000-
EAST


CITY           SKY/WX    TMP DP  RH WIND       PRES   REMARKS
ALBANY         MOSUNNY   55  27  34 NW15G23   29.76F
GLENS FALLS    PTSUNNY   52  26  36 N13G20    29.74F
POUGHKEEPSIE   MOSUNNY   58  25  28 N9G17     29.74F
NEWBURGH       MOSUNNY   54  28  37 W9        29.75F
MONTGOMERY     SUNNY     57  26  30 W12G21    29.73F
WHITE PLAINS   MOSUNNY   55  24  30 W10       29.74F
ISLIP          MOSUNNY   56  25  30 NW8G20    29.74F
NEW YORK CITY  MOSUNNY   57  22  25 W13       29.76F
CENTRAL PARK   SUNNY     58  22  24 VRB5      29.78F
$$

NYZ005>009-017-018-044>046-055-056-252000-
CENTRAL


CITY           SKY/WX    TMP DP  RH WIND       PRES   REMARKS
FULTON         SUNNY     46  26  45 NW12      29.85F
SYRACUSE       MOSUNNY   48  26  42 NW13      29.84F
ROME           CLOUDY    51  29  42 N9        29.81F
ELMIRA         SUNNY     51  26  37 NE6       29.81F
BINGHAMTON     SUNNY     48  26  42 NW8G20    29.78F
MONTICELLO     SUNNY     52  27  37 NW14      29.76F
$$

NYZ026>034-041>043-252000-
NORTH


CITY           SKY/WX    TMP DP  RH WIND       PRES   REMARKS
WATERTOWN      CLOUDY    43  28  55 W13       29.85F
FORT DRUM      NOT AVBL
MASSENA        MOSUNNY   47  30  51 W9        29.82F
SARANAC LAKE   PTSUNNY   42  28  57 VRB6G16   29.74F
PLATTSBURGH    CLOUDY    43  28  55 SE7       29.77F
$$

NYZ001>004-010>016-019>021-252000-
WEST


CITY           SKY/WX    TMP DP  RH WIND       PRES   REMARKS
NIAGARA FALLS  MOSUNNY   48  25  40 N8        29.86F
BUFFALO        MOSUNNY   50  27  40 N8G16     29.86F
DUNKIRK        MOSUNNY   46  25  43 N13       29.86F
JAMESTOWN      MOSUNNY   46  23  39 NW8       29.81F
WELLSVILLE     SUNNY     49  22  34 NE10      29.79F
ROCHESTER      MOSUNNY   49  27  42 NW12G17   29.87F
PENN YAN       PTSUNNY   48  26  42 N7        29.84F
$$

             KEY
       WCI = WIND CHILL INDEX
       VSB = VISIBILITY
       HX  = HEAT INDEX
$$



USA.gov is the U.S. government's official web portal to all federal, state and local government web resources and services.